owner,sensor,date,latitude,longitude,vertical_datum,mass_concentration_of_oxygen_in_sea_water,qcFlag 
SCCF RECON,ioos:station:SCCF:13:1,2014-08-01T00:00:00Z,26.5255,-82.0032,2.49,6.52,1111122 
SCCF RECON,ioos:station:SCCF:13:1,2014-08-01T01:00:00Z,26.5255,-82.0032,2.41,6.06,1111122 
SCCF RECON,ioos:station:SCCF:13:1,2014-08-01T02:00:00Z,26.5255,-82.0032,2.35,6.08,1111122 
SCCF RECON,ioos:station:SCCF:13:1,2014-08-01T03:00:00Z,26.5255,-82.0032,2.31,5.92,1111122 
SCCF RECON,ioos:station:SCCF:13:1,2014-08-01T04:00:00Z,26.5255,-82.0032,2.3,6.05,1111122 
SCCF RECON,ioos:station:SCCF:13:1,2014-08-01T05:00:00Z,26.5255,-82.0032,2.39,6.13,1111122 
SCCF RECON,ioos:station:SCCF:13:1,2014-08-01T06:00:00Z,26.5255,-82.0032,2.52,5.58,1111122 
SCCF RECON,ioos:station:SCCF:13:1,2014-08-01T07:00:00Z,26.5255,-82.0032,2.58,5.04,1111122 
SCCF RECON,ioos:station:SCCF:13:1,2014-08-01T08:00:00Z,26.5255,-82.0032,2.63,5.14,1111122 
SCCF RECON,ioos:station:SCCF:13:1,2014-08-01T09:00:00Z,26.5255,-82.0032,2.68,4.97,1111122 
SCCF RECON,ioos:station:SCCF:13:1,2014-08-01T10:00:00Z,26.5255,-82.0032,2.71,4.84,1111122 
SCCF RECON,ioos:station:SCCF:13:1,2014-08-01T11:00:00Z,26.5255,-82.0032,2.67,4.79,1111122 
SCCF RECON,ioos:station:SCCF:13:1,2014-08-01T12:00:00Z,26.5255,-82.0032,2.572,4.66,1111122 
SCCF RECON,ioos:station:SCCF:13:1,2014-08-01T13:00:00Z,26.5255,-82.0032,2.502,4.3,1111122 
SCCF RECON,ioos:station:SCCF:13:1,2014-08-01T14:00:00Z,26.5255,-82.0032,2.44,4.48,1111122 
SCCF RECON,ioos:station:SCCF:13:1,2014-08-01T15:00:00Z,26.5255,-82.0032,2.39,5.03,1111122 
SCCF RECON,ioos:station:SCCF:13:1,2014-08-01T16:00:00Z,26.5255,-82.0032,2.368,5.05,1111122 
SCCF RECON,ioos:station:SCCF:13:1,2014-08-01T17:00:00Z,26.5255,-82.0032,2.41,5.38,1111122 
SCCF RECON,ioos:station:SCCF:13:1,2014-08-01T18:00:00Z,26.5255,-82.0032,2.51,5.16,1111122 
SCCF RECON,ioos:station:SCCF:13:1,2014-08-01T19:00:00Z,26.5255,-82.0032,2.58,5.38,1111122 
SCCF RECON,ioos:station:SCCF:13:1,2014-08-01T20:00:00Z,26.5255,-82.0032,2.6,5.52,1111122 
SCCF RECON,ioos:station:SCCF:13:1,2014-08-01T21:00:00Z,26.5255,-82.0032,2.62,5.73,1111122 
SCCF RECON,ioos:station:SCCF:13:1,2014-08-01T22:00:00Z,26.5255,-82.0032,2.64,6.21,1111122 
SCCF RECON,ioos:station:SCCF:13:1,2014-08-01T23:00:00Z,26.5255,-82.0032,2.626,6.68,1111122 
SCCF RECON,ioos:station:SCCF:13:1,2014-08-02T00:00:00Z,26.5255,-82.0032,2.554,6.4,1111122 
SCCF RECON,ioos:station:SCCF:13:1,2014-08-02T01:00:00Z,26.5255,-82.0032,2.464,5.4,1111122 
SCCF RECON,ioos:station:SCCF:13:1,2014-08-02T02:00:00Z,26.5255,-82.0032,2.404,5.39,1111122 
SCCF RECON,ioos:station:SCCF:13:1,2014-08-02T03:00:00Z,26.5255,-82.0032,2.34,5.76,1111122 
SCCF RECON,ioos:station:SCCF:13:1,2014-08-02T04:00:00Z,26.5255,-82.0032,2.3,5.66,1111122 
SCCF RECON,ioos:station:SCCF:13:1,2014-08-02T05:00:00Z,26.5255,-82.0032,2.32,5.87,1111122 
SCCF RECON,ioos:station:SCCF:13:1,2014-08-02T06:00:00Z,26.5255,-82.0032,2.42,5.73,1111122 
SCCF RECON,ioos:station:SCCF:13:1,2014-08-02T07:00:00Z,26.5255,-82.0032,2.52,4.6,1111122 
SCCF RECON,ioos:station:SCCF:13:1,2014-08-02T08:00:00Z,26.5255,-82.0032,2.6,4.47,1111122 
SCCF RECON,ioos:station:SCCF:13:1,2014-08-02T09:00:00Z,26.5255,-82.0032,2.65,4.71,1111122 
SCCF RECON,ioos:station:SCCF:13:1,2014-08-02T10:00:00Z,26.5255,-82.0032,2.68,4.47,1111122 
SCCF RECON,ioos:station:SCCF:13:1,2014-08-02T11:00:00Z,26.5255,-82.0032,2.68,4.64,1111122 
SCCF RECON,ioos:station:SCCF:13:1,2014-08-02T12:00:00Z,26.5255,-82.0032,2.62,4.72,1111122 
SCCF RECON,ioos:station:SCCF:13:1,2014-08-02T13:00:00Z,26.5255,-82.0032,2.552,4.43,1111122 
SCCF RECON,ioos:station:SCCF:13:1,2014-08-02T14:00:00Z,26.5255,-82.0032,2.48,4.18,1111122 
SCCF RECON,ioos:station:SCCF:13:1,2014-08-02T15:00:00Z,26.5255,-82.0032,2.42,4.5,1111122 
SCCF RECON,ioos:station:SCCF:13:1,2014-08-02T16:00:00Z,26.5255,-82.0032,2.36,5.22,1111122 
SCCF RECON,ioos:station:SCCF:13:1,2014-08-02T17:00:00Z,26.5255,-82.0032,2.344,5.48,1111122 
SCCF RECON,ioos:station:SCCF:13:1,2014-08-02T18:00:00Z,26.5255,-82.0032,2.383,5.75,1111122 
SCCF RECON,ioos:station:SCCF:13:1,2014-08-02T19:00:00Z,26.5255,-82.0032,2.46,4.99,1111122 
SCCF RECON,ioos:station:SCCF:13:1,2014-08-02T20:00:00Z,26.5255,-82.0032,2.511,4.53,1111122 
SCCF RECON,ioos:station:SCCF:13:1,2014-08-02T21:00:00Z,26.5255,-82.0032,2.542,6.56,1111122 
SCCF RECON,ioos:station:SCCF:13:1,2014-08-02T22:00:00Z,26.5255,-82.0032,2.58,6.19,1111122 
SCCF RECON,ioos:station:SCCF:13:1,2014-08-02T23:00:00Z,26.5255,-82.0032,2.6,6.34,1111122 
SCCF RECON,ioos:station:SCCF:13:1,2014-08-03T00:00:00Z,26.5255,-82.0032,2.554,6.05,1111122 
SCCF RECON,ioos:station:SCCF:13:1,2014-08-03T01:00:00Z,26.5255,-82.0032,2.498,6.37,1111122 
SCCF RECON,ioos:station:SCCF:13:1,2014-08-03T02:00:00Z,26.5255,-82.0032,2.46,5.54,1111122 
SCCF RECON,ioos:station:SCCF:13:1,2014-08-03T03:00:00Z,26.5255,-82.0032,2.44,5.31,1111122 
SCCF RECON,ioos:station:SCCF:13:1,2014-08-03T04:00:00Z,26.5255,-82.0032,2.41,5.49,1111122 
SCCF RECON,ioos:station:SCCF:13:1,2014-08-03T05:00:00Z,26.5255,-82.0032,2.339,5.58,1111122 
SCCF RECON,ioos:station:SCCF:13:1,2014-08-03T06:00:00Z,26.5255,-82.0032,2.36,5.65,1111122 
SCCF RECON,ioos:station:SCCF:13:1,2014-08-03T07:00:00Z,26.5255,-82.0032,2.46,5.47,1111122 
SCCF RECON,ioos:station:SCCF:13:1,2014-08-03T08:00:00Z,26.5255,-82.0032,2.54,4.34,1111122 
SCCF RECON,ioos:station:SCCF:13:1,2014-08-03T09:00:00Z,26.5255,-82.0032,2.62,4.84,1111122 
SCCF RECON,ioos:station:SCCF:13:1,2014-08-03T10:00:00Z,26.5255,-82.0032,2.71,4.94,1111122 
SCCF RECON,ioos:station:SCCF:13:1,2014-08-03T11:00:00Z,26.5255,-82.0032,2.75,4.76,1111122 
SCCF RECON,ioos:station:SCCF:13:1,2014-08-03T12:00:00Z,26.5255,-82.0032,2.7,4.89,1111122 
SCCF RECON,ioos:station:SCCF:13:1,2014-08-03T13:00:00Z,26.5255,-82.0032,2.6,4.85,1111122 
SCCF RECON,ioos:station:SCCF:13:1,2014-08-03T14:00:00Z,26.5255,-82.0032,2.51,4.64,1111122 
SCCF RECON,ioos:station:SCCF:13:1,2014-08-03T15:00:00Z,26.5255,-82.0032,2.442,4.46,1111122 
SCCF RECON,ioos:station:SCCF:13:1,2014-08-03T16:00:00Z,26.5255,-82.0032,2.38,5.13,1111122 
SCCF RECON,ioos:station:SCCF:13:1,2014-08-03T17:00:00Z,26.5255,-82.0032,2.32,5.51,1111122 
SCCF RECON,ioos:station:SCCF:13:1,2014-08-03T18:00:00Z,26.5255,-82.0032,2.318,5.58,1111122 
SCCF RECON,ioos:station:SCCF:13:1,2014-08-03T19:00:00Z,26.5255,-82.0032,2.351,5.66,1111122 
SCCF RECON,ioos:station:SCCF:13:1,2014-08-03T20:00:00Z,26.5255,-82.0032,2.42,5.21,1111122 
SCCF RECON,ioos:station:SCCF:13:1,2014-08-03T21:00:00Z,26.5255,-82.0032,2.468,4.61,1111122 
SCCF RECON,ioos:station:SCCF:13:1,2014-08-03T22:00:00Z,26.5255,-82.0032,2.49,4.35,1111122 
SCCF RECON,ioos:station:SCCF:13:1,2014-08-03T23:00:00Z,26.5255,-82.0032,2.52,4.27,1111122 
SCCF RECON,ioos:station:SCCF:13:1,2014-08-04T00:00:00Z,26.5255,-82.0032,2.54,4.38,1111122 
SCCF RECON,ioos:station:SCCF:13:1,2014-08-04T01:00:00Z,26.5255,-82.0032,2.55,5.0,1111122 
SCCF RECON,ioos:station:SCCF:13:1,2014-08-04T02:00:00Z,26.5255,-82.0032,2.54,4.84,1111122 
SCCF RECON,ioos:station:SCCF:13:1,2014-08-04T03:00:00Z,26.5255,-82.0032,2.52,4.61,1111122 
SCCF RECON,ioos:station:SCCF:13:1,2014-08-04T04:00:00Z,26.5255,-82.0032,2.48,4.63,1111122 
SCCF RECON,ioos:station:SCCF:13:1,2014-08-04T05:00:00Z,26.5255,-82.0032,2.45,4.49,1111122 
SCCF RECON,ioos:station:SCCF:13:1,2014-08-04T06:00:00Z,26.5255,-82.0032,2.39,4.89,1111122 
SCCF RECON,ioos:station:SCCF:13:1,2014-08-04T07:00:00Z,26.5255,-82.0032,2.45,4.41,1111122 
SCCF RECON,ioos:station:SCCF:13:1,2014-08-04T08:00:00Z,26.5255,-82.0032,2.6,3.91,1111122 
SCCF RECON,ioos:station:SCCF:13:1,2014-08-04T09:00:00Z,26.5255,-82.0032,2.66,4.6,1111122 
SCCF RECON,ioos:station:SCCF:13:1,2014-08-04T10:00:00Z,26.5255,-82.0032,2.73,4.85,1111122 
SCCF RECON,ioos:station:SCCF:13:1,2014-08-04T11:00:00Z,26.5255,-82.0032,2.81,4.87,1111122 
SCCF RECON,ioos:station:SCCF:13:1,2014-08-04T12:00:00Z,26.5255,-82.0032,2.81,5.12,1111122 
SCCF RECON,ioos:station:SCCF:13:1,2014-08-04T13:00:00Z,26.5255,-82.0032,2.806,5.21,1111122 
SCCF RECON,ioos:station:SCCF:13:1,2014-08-04T14:00:00Z,26.5255,-82.0032,2.756,5.04,1111122 
SCCF RECON,ioos:station:SCCF:13:1,2014-08-04T15:00:00Z,26.5255,-82.0032,2.679,4.7,1111122 
SCCF RECON,ioos:station:SCCF:13:1,2014-08-04T16:00:00Z,26.5255,-82.0032,2.651,4.87,1111122 
SCCF RECON,ioos:station:SCCF:13:1,2014-08-04T17:00:00Z,26.5255,-82.0032,2.57,5.09,1111122 
SCCF RECON,ioos:station:SCCF:13:1,2014-08-04T18:00:00Z,26.5255,-82.0032,2.497,4.85,1111122 
SCCF RECON,ioos:station:SCCF:13:1,2014-08-04T19:00:00Z,26.5255,-82.0032,2.45,4.97,1111122 
SCCF RECON,ioos:station:SCCF:13:1,2014-08-04T20:00:00Z,26.5255,-82.0032,2.417,5.0,1111122 
SCCF RECON,ioos:station:SCCF:13:1,2014-08-04T21:00:00Z,26.5255,-82.0032,2.38,4.83,1111122 
SCCF RECON,ioos:station:SCCF:13:1,2014-08-04T22:00:00Z,26.5255,-82.0032,2.4,4.7,1111122 
SCCF RECON,ioos:station:SCCF:13:1,2014-08-04T23:00:00Z,26.5255,-82.0032,2.46,4.86,1111122 
SCCF RECON,ioos:station:SCCF:13:1,2014-08-05T00:00:00Z,26.5255,-82.0032,2.51,4.38,1111122 
SCCF RECON,ioos:station:SCCF:13:1,2014-08-05T01:00:00Z,26.5255,-82.0032,2.53,3.7,1111122 
SCCF RECON,ioos:station:SCCF:13:1,2014-08-05T02:00:00Z,26.5255,-82.0032,2.57,4.28,1111122 
SCCF RECON,ioos:station:SCCF:13:1,2014-08-05T03:00:00Z,26.5255,-82.0032,2.6,4.31,1111122 
SCCF RECON,ioos:station:SCCF:13:1,2014-08-05T04:00:00Z,26.5255,-82.0032,2.58,4.32,1111122 
SCCF RECON,ioos:station:SCCF:13:1,2014-08-05T05:00:00Z,26.5255,-82.0032,2.56,3.84,1111122 
SCCF RECON,ioos:station:SCCF:13:1,2014-08-05T06:00:00Z,26.5255,-82.0032,2.54,4.07,1111122 
SCCF RECON,ioos:station:SCCF:13:1,2014-08-05T07:00:00Z,26.5255,-82.0032,2.53,4.03,1111122 
SCCF RECON,ioos:station:SCCF:13:1,2014-08-05T08:00:00Z,26.5255,-82.0032,2.58,3.42,1111122 
SCCF RECON,ioos:station:SCCF:13:1,2014-08-05T09:00:00Z,26.5255,-82.0032,2.66,3.34,1111122 
SCCF RECON,ioos:station:SCCF:13:1,2014-08-05T10:00:00Z,26.5255,-82.0032,2.73,4.06,1111122 
SCCF RECON,ioos:station:SCCF:13:1,2014-08-05T11:00:00Z,26.5255,-82.0032,2.81,4.17,1111122 
SCCF RECON,ioos:station:SCCF:13:1,2014-08-05T12:00:00Z,26.5255,-82.0032,2.85,3.96,1111122 
SCCF RECON,ioos:station:SCCF:13:1,2014-08-05T13:00:00Z,26.5255,-82.0032,2.862,3.94,1111122 
SCCF RECON,ioos:station:SCCF:13:1,2014-08-05T14:00:00Z,26.5255,-82.0032,2.809,4.13,1111122 
SCCF RECON,ioos:station:SCCF:13:1,2014-08-05T15:00:00Z,26.5255,-82.0032,2.73,3.76,1111122 
SCCF RECON,ioos:station:SCCF:13:1,2014-08-05T16:00:00Z,26.5255,-82.0032,2.631,3.85,1111122 
SCCF RECON,ioos:station:SCCF:13:1,2014-08-05T17:00:00Z,26.5255,-82.0032,2.55,4.07,1111122 
SCCF RECON,ioos:station:SCCF:13:1,2014-08-05T18:00:00Z,26.5255,-82.0032,2.461,4.4,1111122 
SCCF RECON,ioos:station:SCCF:13:1,2014-08-05T19:00:00Z,26.5255,-82.0032,2.38,5.03,1111122 
SCCF RECON,ioos:station:SCCF:13:1,2014-08-05T20:00:00Z,26.5255,-82.0032,2.307,5.16,1111122 
SCCF RECON,ioos:station:SCCF:13:1,2014-08-05T21:00:00Z,26.5255,-82.0032,2.28,5.05,1111122 
SCCF RECON,ioos:station:SCCF:13:1,2014-08-05T22:00:00Z,26.5255,-82.0032,2.34,5.05,1111122 
SCCF RECON,ioos:station:SCCF:13:1,2014-08-05T23:00:00Z,26.5255,-82.0032,2.41,5.25,1111122 
SCCF RECON,ioos:station:SCCF:13:1,2014-08-06T00:00:00Z,26.5255,-82.0032,2.446,5.23,1111122 
SCCF RECON,ioos:station:SCCF:13:1,2014-08-06T01:00:00Z,26.5255,-82.0032,2.51,4.69,1111122 
SCCF RECON,ioos:station:SCCF:13:1,2014-08-06T02:00:00Z,26.5255,-82.0032,2.553,5.18,1111122 
SCCF RECON,ioos:station:SCCF:13:1,2014-08-06T03:00:00Z,26.5255,-82.0032,2.57,4.32,1111122 
SCCF RECON,ioos:station:SCCF:13:1,2014-08-06T04:00:00Z,26.5255,-82.0032,2.57,4.01,1111122 
SCCF RECON,ioos:station:SCCF:13:1,2014-08-06T05:00:00Z,26.5255,-82.0032,2.53,4.39,1111122 
SCCF RECON,ioos:station:SCCF:13:1,2014-08-06T06:00:00Z,26.5255,-82.0032,2.48,4.43,1111122 
SCCF RECON,ioos:station:SCCF:13:1,2014-08-06T07:00:00Z,26.5255,-82.0032,2.47,3.79,1111122 
SCCF RECON,ioos:station:SCCF:13:1,2014-08-06T08:00:00Z,26.5255,-82.0032,2.48,3.84,1111122 
SCCF RECON,ioos:station:SCCF:13:1,2014-08-06T09:00:00Z,26.5255,-82.0032,2.54,2.68,1111122 
SCCF RECON,ioos:station:SCCF:13:1,2014-08-06T10:00:00Z,26.5255,-82.0032,2.63,3.91,1111122 
SCCF RECON,ioos:station:SCCF:13:1,2014-08-06T11:00:00Z,26.5255,-82.0032,2.705,3.96,1111122 
SCCF RECON,ioos:station:SCCF:13:1,2014-08-06T12:00:00Z,26.5255,-82.0032,2.752,4.1,1111122 
SCCF RECON,ioos:station:SCCF:13:1,2014-08-06T13:00:00Z,26.5255,-82.0032,2.8,3.93,1111122 
SCCF RECON,ioos:station:SCCF:13:1,2014-08-06T14:00:00Z,26.5255,-82.0032,2.81,4.28,1111122 
SCCF RECON,ioos:station:SCCF:13:1,2014-08-06T15:00:00Z,26.5255,-82.0032,2.784,4.07,1111122 
SCCF RECON,ioos:station:SCCF:13:1,2014-08-06T16:00:00Z,26.5255,-82.0032,2.69,3.97,1111122 
SCCF RECON,ioos:station:SCCF:13:1,2014-08-06T17:00:00Z,26.5255,-82.0032,2.57,4.4,1111122 
SCCF RECON,ioos:station:SCCF:13:1,2014-08-06T18:00:00Z,26.5255,-82.0032,2.468,5.06,1111122 
SCCF RECON,ioos:station:SCCF:13:1,2014-08-06T19:00:00Z,26.5255,-82.0032,2.38,5.53,1111122 
SCCF RECON,ioos:station:SCCF:13:1,2014-08-06T20:00:00Z,26.5255,-82.0032,2.29,5.52,1111122 
SCCF RECON,ioos:station:SCCF:13:1,2014-08-06T21:00:00Z,26.5255,-82.0032,2.224,5.97,1111122 
SCCF RECON,ioos:station:SCCF:13:1,2014-08-06T22:00:00Z,26.5255,-82.0032,2.207,5.54,1111122 
SCCF RECON,ioos:station:SCCF:13:1,2014-08-06T23:00:00Z,26.5255,-82.0032,2.28,5.43,1111122 
SCCF RECON,ioos:station:SCCF:13:1,2014-08-07T00:00:00Z,26.5255,-82.0032,2.38,5.83,1111122 
SCCF RECON,ioos:station:SCCF:13:1,2014-08-07T01:00:00Z,26.5255,-82.0032,2.44,5.52,1111122 
SCCF RECON,ioos:station:SCCF:13:1,2014-08-07T02:00:00Z,26.5255,-82.0032,2.51,5.78,1111122 
SCCF RECON,ioos:station:SCCF:13:1,2014-08-07T03:00:00Z,26.5255,-82.0032,2.57,5.62,1111122 
SCCF RECON,ioos:station:SCCF:13:1,2014-08-07T04:00:00Z,26.5255,-82.0032,2.59,5.93,1111122 
SCCF RECON,ioos:station:SCCF:13:1,2014-08-07T05:00:00Z,26.5255,-82.0032,2.6,5.85,1111122 
SCCF RECON,ioos:station:SCCF:13:1,2014-08-07T06:00:00Z,26.5255,-82.0032,2.573,5.47,1111122 
SCCF RECON,ioos:station:SCCF:13:1,2014-08-07T07:00:00Z,26.5255,-82.0032,2.52,5.0,1111122 
SCCF RECON,ioos:station:SCCF:13:1,2014-08-07T08:00:00Z,26.5255,-82.0032,2.49,5.32,1111122 
SCCF RECON,ioos:station:SCCF:13:1,2014-08-07T09:00:00Z,26.5255,-82.0032,2.5,4.78,1111122 
SCCF RECON,ioos:station:SCCF:13:1,2014-08-07T10:00:00Z,26.5255,-82.0032,2.58,3.94,1111122 
SCCF RECON,ioos:station:SCCF:13:1,2014-08-07T11:00:00Z,26.5255,-82.0032,2.68,3.93,1111122 
SCCF RECON,ioos:station:SCCF:13:1,2014-08-07T12:00:00Z,26.5255,-82.0032,2.74,4.58,1111122 
SCCF RECON,ioos:station:SCCF:13:1,2014-08-07T13:00:00Z,26.5255,-82.0032,2.8,4.8,1111122 
SCCF RECON,ioos:station:SCCF:13:1,2014-08-07T14:00:00Z,26.5255,-82.0032,2.85,4.76,1111122 
SCCF RECON,ioos:station:SCCF:13:1,2014-08-07T15:00:00Z,26.5255,-82.0032,2.88,5.18,1111122 
SCCF RECON,ioos:station:SCCF:13:1,2014-08-07T16:00:00Z,26.5255,-82.0032,2.86,5.78,1111122 
SCCF RECON,ioos:station:SCCF:13:1,2014-08-07T17:00:00Z,26.5255,-82.0032,2.77,5.0,1111122 
SCCF RECON,ioos:station:SCCF:13:1,2014-08-07T18:00:00Z,26.5255,-82.0032,2.622,6.41,1111122 
SCCF RECON,ioos:station:SCCF:13:1,2014-08-07T19:00:00Z,26.5255,-82.0032,2.51,6.63,1111122 
SCCF RECON,ioos:station:SCCF:13:1,2014-08-07T20:00:00Z,26.5255,-82.0032,2.415,6.95,1111122 
SCCF RECON,ioos:station:SCCF:13:1,2014-08-07T21:00:00Z,26.5255,-82.0032,2.32,6.87,1111122 
SCCF RECON,ioos:station:SCCF:13:1,2014-08-07T22:00:00Z,26.5255,-82.0032,2.244,6.73,1111122 
SCCF RECON,ioos:station:SCCF:13:1,2014-08-07T23:00:00Z,26.5255,-82.0032,2.226,6.17,1111122 
SCCF RECON,ioos:station:SCCF:13:1,2014-08-08T00:00:00Z,26.5255,-82.0032,2.3,6.02,1111122 
SCCF RECON,ioos:station:SCCF:13:1,2014-08-08T01:00:00Z,26.5255,-82.0032,2.42,6.32,1111122 
SCCF RECON,ioos:station:SCCF:13:1,2014-08-08T02:00:00Z,26.5255,-82.0032,2.5,5.92,1111122 
SCCF RECON,ioos:station:SCCF:13:1,2014-08-08T03:00:00Z,26.5255,-82.0032,2.57,5.54,1111122 
SCCF RECON,ioos:station:SCCF:13:1,2014-08-08T04:00:00Z,26.5255,-82.0032,2.63,6.02,1111122 
SCCF RECON,ioos:station:SCCF:13:1,2014-08-08T05:00:00Z,26.5255,-82.0032,2.65,5.97,1111122 
SCCF RECON,ioos:station:SCCF:13:1,2014-08-08T06:00:00Z,26.5255,-82.0032,2.658,5.77,1111122 
SCCF RECON,ioos:station:SCCF:13:1,2014-08-08T07:00:00Z,26.5255,-82.0032,2.62,5.26,1111122 
SCCF RECON,ioos:station:SCCF:13:1,2014-08-08T08:00:00Z,26.5255,-82.0032,2.57,5.01,1111122 
SCCF RECON,ioos:station:SCCF:13:1,2014-08-08T09:00:00Z,26.5255,-82.0032,2.5,4.88,1111122 
SCCF RECON,ioos:station:SCCF:13:1,2014-08-08T10:00:00Z,26.5255,-82.0032,2.5,4.18,1111122 
SCCF RECON,ioos:station:SCCF:13:1,2014-08-08T11:00:00Z,26.5255,-82.0032,2.59,4.09,1111122 
SCCF RECON,ioos:station:SCCF:13:1,2014-08-08T12:00:00Z,26.5255,-82.0032,2.72,3.82,1111122 
SCCF RECON,ioos:station:SCCF:13:1,2014-08-08T13:00:00Z,26.5255,-82.0032,2.84,4.84,1111122 
SCCF RECON,ioos:station:SCCF:13:1,2014-08-08T14:00:00Z,26.5255,-82.0032,2.93,5.39,1111122 
SCCF RECON,ioos:station:SCCF:13:1,2014-08-08T15:00:00Z,26.5255,-82.0032,2.99,5.11,1111122 
SCCF RECON,ioos:station:SCCF:13:1,2014-08-08T16:00:00Z,26.5255,-82.0032,2.978,5.69,1111122 
SCCF RECON,ioos:station:SCCF:13:1,2014-08-08T17:00:00Z,26.5255,-82.0032,2.92,6.1,1111122 
SCCF RECON,ioos:station:SCCF:13:1,2014-08-08T18:00:00Z,26.5255,-82.0032,2.79,5.72,1111122 
SCCF RECON,ioos:station:SCCF:13:1,2014-08-08T19:00:00Z,26.5255,-82.0032,2.66,6.11,1111122 
SCCF RECON,ioos:station:SCCF:13:1,2014-08-08T20:00:00Z,26.5255,-82.0032,2.55,6.62,1111122 
SCCF RECON,ioos:station:SCCF:13:1,2014-08-08T21:00:00Z,26.5255,-82.0032,2.458,6.8,1111122 
SCCF RECON,ioos:station:SCCF:13:1,2014-08-08T22:00:00Z,26.5255,-82.0032,2.37,6.61,1111122 
SCCF RECON,ioos:station:SCCF:13:1,2014-08-08T23:00:00Z,26.5255,-82.0032,2.29,6.34,1111122 
SCCF RECON,ioos:station:SCCF:13:1,2014-08-09T00:00:00Z,26.5255,-82.0032,2.25,5.79,1111122 
SCCF RECON,ioos:station:SCCF:13:1,2014-08-09T01:00:00Z,26.5255,-82.0032,2.35,5.66,1111122 
SCCF RECON,ioos:station:SCCF:13:1,2014-08-09T02:00:00Z,26.5255,-82.0032,2.49,5.6,1111122 
SCCF RECON,ioos:station:SCCF:13:1,2014-08-09T03:00:00Z,26.5255,-82.0032,2.56,4.76,1111122 
SCCF RECON,ioos:station:SCCF:13:1,2014-08-09T04:00:00Z,26.5255,-82.0032,2.64,5.03,1111122 
SCCF RECON,ioos:station:SCCF:13:1,2014-08-09T05:00:00Z,26.5255,-82.0032,2.69,5.41,1111122 
SCCF RECON,ioos:station:SCCF:13:1,2014-08-09T06:00:00Z,26.5255,-82.0032,2.7,5.33,1111122 
SCCF RECON,ioos:station:SCCF:13:1,2014-08-09T07:00:00Z,26.5255,-82.0032,2.65,5.23,1111122 
SCCF RECON,ioos:station:SCCF:13:1,2014-08-09T08:00:00Z,26.5255,-82.0032,2.59,4.95,1111122 
SCCF RECON,ioos:station:SCCF:13:1,2014-08-09T09:00:00Z,26.5255,-82.0032,2.51,4.63,1111122 
SCCF RECON,ioos:station:SCCF:13:1,2014-08-09T10:00:00Z,26.5255,-82.0032,2.47,4.22,1111122 
SCCF RECON,ioos:station:SCCF:13:1,2014-08-09T11:00:00Z,26.5255,-82.0032,2.492,4.19,1111122 
SCCF RECON,ioos:station:SCCF:13:1,2014-08-09T12:00:00Z,26.5255,-82.0032,2.57,3.79,1111122 
SCCF RECON,ioos:station:SCCF:13:1,2014-08-09T13:00:00Z,26.5255,-82.0032,2.71,3.62,1111122 
SCCF RECON,ioos:station:SCCF:13:1,2014-08-09T14:00:00Z,26.5255,-82.0032,2.83,4.43,1111122 
SCCF RECON,ioos:station:SCCF:13:1,2014-08-09T15:00:00Z,26.5255,-82.0032,2.909,5.18,1111122 
SCCF RECON,ioos:station:SCCF:13:1,2014-08-09T16:00:00Z,26.5255,-82.0032,2.967,5.18,1111122 
SCCF RECON,ioos:station:SCCF:13:1,2014-08-09T17:00:00Z,26.5255,-82.0032,2.999,5.74,1111122 
SCCF RECON,ioos:station:SCCF:13:1,2014-08-09T18:00:00Z,26.5255,-82.0032,2.92,6.13,1111122 
SCCF RECON,ioos:station:SCCF:13:1,2014-08-09T19:00:00Z,26.5255,-82.0032,2.78,5.98,1111122 
SCCF RECON,ioos:station:SCCF:13:1,2014-08-09T20:00:00Z,26.5255,-82.0032,2.66,5.81,1111122 
SCCF RECON,ioos:station:SCCF:13:1,2014-08-09T21:00:00Z,26.5255,-82.0032,2.554,6.35,1111122 
SCCF RECON,ioos:station:SCCF:13:1,2014-08-09T22:00:00Z,26.5255,-82.0032,2.44,6.52,1111122 
SCCF RECON,ioos:station:SCCF:13:1,2014-08-09T23:00:00Z,26.5255,-82.0032,2.33,6.23,1111122 
SCCF RECON,ioos:station:SCCF:13:1,2014-08-10T00:00:00Z,26.5255,-82.0032,2.27,5.59,1111122 
SCCF RECON,ioos:station:SCCF:13:1,2014-08-10T01:00:00Z,26.5255,-82.0032,2.273,5.14,1111122 
SCCF RECON,ioos:station:SCCF:13:1,2014-08-10T02:00:00Z,26.5255,-82.0032,2.406,5.11,1111122 
SCCF RECON,ioos:station:SCCF:13:1,2014-08-10T03:00:00Z,26.5255,-82.0032,2.54,5.0,1111122 
SCCF RECON,ioos:station:SCCF:13:1,2014-08-10T04:00:00Z,26.5255,-82.0032,2.62,4.22,1111122 
SCCF RECON,ioos:station:SCCF:13:1,2014-08-10T05:00:00Z,26.5255,-82.0032,2.69,4.95,1111122 
SCCF RECON,ioos:station:SCCF:13:1,2014-08-10T06:00:00Z,26.5255,-82.0032,2.73,5.1,1111122 
SCCF RECON,ioos:station:SCCF:13:1,2014-08-10T07:00:00Z,26.5255,-82.0032,2.72,5.09,1111122 
SCCF RECON,ioos:station:SCCF:13:1,2014-08-10T08:00:00Z,26.5255,-82.0032,2.635,4.73,1111122 
SCCF RECON,ioos:station:SCCF:13:1,2014-08-10T09:00:00Z,26.5255,-82.0032,2.55,4.75,1111122 
SCCF RECON,ioos:station:SCCF:13:1,2014-08-10T10:00:00Z,26.5255,-82.0032,2.47,3.91,1111122 
SCCF RECON,ioos:station:SCCF:13:1,2014-08-10T11:00:00Z,26.5255,-82.0032,2.41,4.07,1111122 
SCCF RECON,ioos:station:SCCF:13:1,2014-08-10T12:00:00Z,26.5255,-82.0032,2.44,4.08,1111122 
SCCF RECON,ioos:station:SCCF:13:1,2014-08-10T13:00:00Z,26.5255,-82.0032,2.56,4.3,1111122 
SCCF RECON,ioos:station:SCCF:13:1,2014-08-10T14:00:00Z,26.5255,-82.0032,2.706,3.46,1111122 
SCCF RECON,ioos:station:SCCF:13:1,2014-08-10T15:00:00Z,26.5255,-82.0032,2.807,3.9,1111122 
SCCF RECON,ioos:station:SCCF:13:1,2014-08-10T16:00:00Z,26.5255,-82.0032,2.899,4.72,1111122 
SCCF RECON,ioos:station:SCCF:13:1,2014-08-10T17:00:00Z,26.5255,-82.0032,2.964,5.15,1111122 
SCCF RECON,ioos:station:SCCF:13:1,2014-08-10T18:00:00Z,26.5255,-82.0032,2.971,5.97,1111122 
SCCF RECON,ioos:station:SCCF:13:1,2014-08-10T19:00:00Z,26.5255,-82.0032,2.9,6.33,1111122 
SCCF RECON,ioos:station:SCCF:13:1,2014-08-10T20:00:00Z,26.5255,-82.0032,2.769,6.07,1111122 
SCCF RECON,ioos:station:SCCF:13:1,2014-08-10T21:00:00Z,26.5255,-82.0032,2.621,6.0,1111122 
SCCF RECON,ioos:station:SCCF:13:1,2014-08-10T22:00:00Z,26.5255,-82.0032,2.522,6.06,1111122 
SCCF RECON,ioos:station:SCCF:13:1,2014-08-10T23:00:00Z,26.5255,-82.0032,2.422,6.01,1111122 
SCCF RECON,ioos:station:SCCF:13:1,2014-08-11T00:00:00Z,26.5255,-82.0032,2.325,5.82,1111122 
SCCF RECON,ioos:station:SCCF:13:1,2014-08-11T01:00:00Z,26.5255,-82.0032,2.26,5.42,1111122 
SCCF RECON,ioos:station:SCCF:13:1,2014-08-11T02:00:00Z,26.5255,-82.0032,2.31,4.84,1111122 
SCCF RECON,ioos:station:SCCF:13:1,2014-08-11T03:00:00Z,26.5255,-82.0032,2.47,5.21,1111122 
SCCF RECON,ioos:station:SCCF:13:1,2014-08-11T04:00:00Z,26.5255,-82.0032,2.58,4.89,1111122 
SCCF RECON,ioos:station:SCCF:13:1,2014-08-11T05:00:00Z,26.5255,-82.0032,2.669,4.64,1111122 
SCCF RECON,ioos:station:SCCF:13:1,2014-08-11T06:00:00Z,26.5255,-82.0032,2.75,4.83,1111122 
SCCF RECON,ioos:station:SCCF:13:1,2014-08-11T07:00:00Z,26.5255,-82.0032,2.759,4.93,1111122 
SCCF RECON,ioos:station:SCCF:13:1,2014-08-11T08:00:00Z,26.5255,-82.0032,2.69,4.77,1111122 
SCCF RECON,ioos:station:SCCF:13:1,2014-08-11T09:00:00Z,26.5255,-82.0032,2.57,4.64,1111122 
SCCF RECON,ioos:station:SCCF:13:1,2014-08-11T10:00:00Z,26.5255,-82.0032,2.49,4.04,1111122 
SCCF RECON,ioos:station:SCCF:13:1,2014-08-11T11:00:00Z,26.5255,-82.0032,2.42,3.87,1111122 
SCCF RECON,ioos:station:SCCF:13:1,2014-08-11T12:00:00Z,26.5255,-82.0032,2.38,4.16,1111122 
SCCF RECON,ioos:station:SCCF:13:1,2014-08-11T13:00:00Z,26.5255,-82.0032,2.38,4.19,1111122 
SCCF RECON,ioos:station:SCCF:13:1,2014-08-11T14:00:00Z,26.5255,-82.0032,2.53,4.42,1111122 
SCCF RECON,ioos:station:SCCF:13:1,2014-08-11T15:00:00Z,26.5255,-82.0032,2.691,3.98,1111122 
SCCF RECON,ioos:station:SCCF:13:1,2014-08-11T16:00:00Z,26.5255,-82.0032,2.79,4.26,1111122 
SCCF RECON,ioos:station:SCCF:13:1,2014-08-11T17:00:00Z,26.5255,-82.0032,2.86,5.09,1111122 
SCCF RECON,ioos:station:SCCF:13:1,2014-08-11T18:00:00Z,26.5255,-82.0032,2.92,5.41,1111122 
SCCF RECON,ioos:station:SCCF:13:1,2014-08-11T19:00:00Z,26.5255,-82.0032,2.934,6.05,1111122 
SCCF RECON,ioos:station:SCCF:13:1,2014-08-11T20:00:00Z,26.5255,-82.0032,2.85,6.39,1111122 
SCCF RECON,ioos:station:SCCF:13:1,2014-08-11T21:00:00Z,26.5255,-82.0032,2.71,5.97,1111122 